Datum;Stunden;Zählung;Temperatur (°C);Min. Temperatur (°C);Max. Temperatur (°C);Windstärke (km/h);Regen (mm);Schnee (mm);Wetter
01.01.2017;00:00:00;1;;-;-;;;;
01.01.2017;01:00:00;1;;-;-;;;;
01.01.2017;02:00:00;3;;-;-;;;;
01.01.2017;03:00:00;1;;-;-;;;;
01.01.2017;04:00:00;5;;-;-;;;;
01.01.2017;05:00:00;3;;-;-;;;;
01.01.2017;06:00:00;1;;-;-;;;;
01.01.2017;07:00:00;1;;-;-;;;;
01.01.2017;08:00:00;1;;-;-;;;;
01.01.2017;09:00:00;1;;-;-;;;;
01.01.2017;10:00:00;2;;-;-;;;;
01.01.2017;11:00:00;3;;-;-;;;;
01.01.2017;12:00:00;1;;-;-;;;;
01.01.2017;13:00:00;4;;-;-;;;;
01.01.2017;14:00:00;2;;-;-;;;;
01.01.2017;15:00:00;6;;-;-;;;;
01.01.2017;16:00:00;3;;-;-;;;;
01.01.2017;17:00:00;5;;-;-;;;;
01.01.2017;18:00:00;11;;-;-;;;;
01.01.2017;19:00:00;4;;-;-;;;;
01.01.2017;20:00:00;6;;-;-;;;;
01.01.2017;21:00:00;1;;-;-;;;;
01.01.2017;22:00:00;1;;-;-;;;;
01.01.2017;23:00:00;0;;-;-;;;;
02.01.2017;00:00:00;0;;-;-;;;;
02.01.2017;01:00:00;2;;-;-;;;;
02.01.2017;02:00:00;1;;-;-;;;;
02.01.2017;03:00:00;0;;-;-;;;;
02.01.2017;04:00:00;0;;-;-;;;;
02.01.2017;05:00:00;0;;-;-;;;;
02.01.2017;06:00:00;1;;-;-;;;;
02.01.2017;07:00:00;3;;-;-;;;;
02.01.2017;08:00:00;9;;-;-;;;;
02.01.2017;09:00:00;12;;-;-;;;;
02.01.2017;10:00:00;5;;-;-;;;;
02.01.2017;11:00:00;7;;-;-;;;;
02.01.2017;12:00:00;11;;-;-;;;;
02.01.2017;13:00:00;11;;-;-;;;;
02.01.2017;14:00:00;7;;-;-;;;;
02.01.2017;15:00:00;16;;-;-;;;;
02.01.2017;16:00:00;15;;-;-;;;;
02.01.2017;17:00:00;19;;-;-;;;;
02.01.2017;18:00:00;15;;-;-;;;;
02.01.2017;19:00:00;14;;-;-;;;;
02.01.2017;20:00:00;6;;-;-;;;;
02.01.2017;21:00:00;1;;-;-;;;;
02.01.2017;22:00:00;1;;-;-;;;;
02.01.2017;23:00:00;6;;-;-;;;;
03.01.2017;00:00:00;0;;-;-;;;;
03.01.2017;01:00:00;0;;-;-;;;;
03.01.2017;02:00:00;2;;-;-;;;;
03.01.2017;03:00:00;0;;-;-;;;;
03.01.2017;04:00:00;0;;-;-;;;;
03.01.2017;05:00:00;0;;-;-;;;;
03.01.2017;06:00:00;1;;-;-;;;;
03.01.2017;07:00:00;4;;-;-;;;;
03.01.2017;08:00:00;8;;-;-;;;;
03.01.2017;09:00:00;14;;-;-;;;;
03.01.2017;10:00:00;3;;-;-;;;;
03.01.2017;11:00:00;16;;-;-;;;;
03.01.2017;12:00:00;15;;-;-;;;;
03.01.2017;13:00:00;12;;-;-;;;;
03.01.2017;14:00:00;13;;-;-;;;;
03.01.2017;15:00:00;18;;-;-;;;;
03.01.2017;16:00:00;17;;-;-;;;;
03.01.2017;17:00:00;23;;-;-;;;;
03.01.2017;18:00:00;22;;-;-;;;;
03.01.2017;19:00:00;8;;-;-;;;;
03.01.2017;20:00:00;4;;-;-;;;;
03.01.2017;21:00:00;6;;-;-;;;;
03.01.2017;22:00:00;5;;-;-;;;;
03.01.2017;23:00:00;2;;-;-;;;;
04.01.2017;00:00:00;1;;-;-;;;;
04.01.2017;01:00:00;1;;-;-;;;;
04.01.2017;02:00:00;3;;-;-;;;;
04.01.2017;03:00:00;0;;-;-;;;;
04.01.2017;04:00:00;0;;-;-;;;;
04.01.2017;05:00:00;0;;-;-;;;;
04.01.2017;06:00:00;1;;-;-;;;;
04.01.2017;07:00:00;5;;-;-;;;;
04.01.2017;08:00:00;8;;-;-;;;;
04.01.2017;09:00:00;7;;-;-;;;;
04.01.2017;10:00:00;10;;-;-;;;;
04.01.2017;11:00:00;8;;-;-;;;;
04.01.2017;12:00:00;18;;-;-;;;;
04.01.2017;13:00:00;16;;-;-;;;;
04.01.2017;14:00:00;14;;-;-;;;;
04.01.2017;15:00:00;18;;-;-;;;;
04.01.2017;16:00:00;18;;-;-;;;;
04.01.2017;17:00:00;14;;-;-;;;;
04.01.2017;18:00:00;14;;-;-;;;;
04.01.2017;19:00:00;9;;-;-;;;;
04.01.2017;20:00:00;10;;-;-;;;;
04.01.2017;21:00:00;11;;-;-;;;;
04.01.2017;22:00:00;5;;-;-;;;;
04.01.2017;23:00:00;5;;-;-;;;;
05.01.2017;00:00:00;3;;-;-;;;;
05.01.2017;01:00:00;0;;-;-;;;;
05.01.2017;02:00:00;0;;-;-;;;;
05.01.2017;03:00:00;0;;-;-;;;;
05.01.2017;04:00:00;1;;-;-;;;;
05.01.2017;05:00:00;0;;-;-;;;;
05.01.2017;06:00:00;1;;-;-;;;;
05.01.2017;07:00:00;4;;-;-;;;;
05.01.2017;08:00:00;10;;-;-;;;;
05.01.2017;09:00:00;12;;-;-;;;;
05.01.2017;10:00:00;8;;-;-;;;;
05.01.2017;11:00:00;16;;-;-;;;;
05.01.2017;12:00:00;9;;-;-;;;;
05.01.2017;13:00:00;21;;-;-;;;;
05.01.2017;14:00:00;15;;-;-;;;;
05.01.2017;15:00:00;29;;-;-;;;;
05.01.2017;16:00:00;24;;-;-;;;;
05.01.2017;17:00:00;24;;-;-;;;;
05.01.2017;18:00:00;30;;-;-;;;;
05.01.2017;19:00:00;28;;-;-;;;;
05.01.2017;20:00:00;6;;-;-;;;;
05.01.2017;21:00:00;4;;-;-;;;;
05.01.2017;22:00:00;8;;-;-;;;;
05.01.2017;23:00:00;2;;-;-;;;;
06.01.2017;00:00:00;0;;-;-;;;;
06.01.2017;01:00:00;3;;-;-;;;;
06.01.2017;02:00:00;0;;-;-;;;;
06.01.2017;03:00:00;1;;-;-;;;;
06.01.2017;04:00:00;0;;-;-;;;;
06.01.2017;05:00:00;1;;-;-;;;;
06.01.2017;06:00:00;1;;-;-;;;;
06.01.2017;07:00:00;5;;-;-;;;;
06.01.2017;08:00:00;11;;-;-;;;;
06.01.2017;09:00:00;6;;-;-;;;;
06.01.2017;10:00:00;10;;-;-;;;;
06.01.2017;11:00:00;12;;-;-;;;;
06.01.2017;12:00:00;14;;-;-;;;;
06.01.2017;13:00:00;20;;-;-;;;;
06.01.2017;14:00:00;26;;-;-;;;;
06.01.2017;15:00:00;28;;-;-;;;;
06.01.2017;16:00:00;22;;-;-;;;;
06.01.2017;17:00:00;25;;-;-;;;;
06.01.2017;18:00:00;16;;-;-;;;;
06.01.2017;19:00:00;19;;-;-;;;;
06.01.2017;20:00:00;12;;-;-;;;;
06.01.2017;21:00:00;5;;-;-;;;;
06.01.2017;22:00:00;3;;-;-;;;;
06.01.2017;23:00:00;2;;-;-;;;;
07.01.2017;00:00:00;3;;-;-;;;;
07.01.2017;01:00:00;8;;-;-;;;;
07.01.2017;02:00:00;3;;-;-;;;;
07.01.2017;03:00:00;0;;-;-;;;;
07.01.2017;04:00:00;0;;-;-;;;;
07.01.2017;05:00:00;0;;-;-;;;;
07.01.2017;06:00:00;1;;-;-;;;;
07.01.2017;07:00:00;3;;-;-;;;;
07.01.2017;08:00:00;3;;-;-;;;;
07.01.2017;09:00:00;10;;-;-;;;;
07.01.2017;10:00:00;2;;-;-;;;;
07.01.2017;11:00:00;12;;-;-;;;;
07.01.2017;12:00:00;16;;-;-;;;;
07.01.2017;13:00:00;8;;-;-;;;;
07.01.2017;14:00:00;15;;-;-;;;;
07.01.2017;15:00:00;11;;-;-;;;;
07.01.2017;16:00:00;13;;-;-;;;;
07.01.2017;17:00:00;12;;-;-;;;;
07.01.2017;18:00:00;7;;-;-;;;;
07.01.2017;19:00:00;3;;-;-;;;;
07.01.2017;20:00:00;1;;-;-;;;;
07.01.2017;21:00:00;3;;-;-;;;;
07.01.2017;22:00:00;3;;-;-;;;;
07.01.2017;23:00:00;3;;-;-;;;;
08.01.2017;00:00:00;0;;-;-;;;;
08.01.2017;01:00:00;2;;-;-;;;;
08.01.2017;02:00:00;0;;-;-;;;;
08.01.2017;03:00:00;0;;-;-;;;;
08.01.2017;04:00:00;0;;-;-;;;;
08.01.2017;05:00:00;0;;-;-;;;;
08.01.2017;06:00:00;0;;-;-;;;;
08.01.2017;07:00:00;0;;-;-;;;;
08.01.2017;08:00:00;1;;-;-;;;;
08.01.2017;09:00:00;0;;-;-;;;;
08.01.2017;10:00:00;1;;-;-;;;;
08.01.2017;11:00:00;1;;-;-;;;;
08.01.2017;12:00:00;2;;-;-;;;;
08.01.2017;13:00:00;3;;-;-;;;;
08.01.2017;14:00:00;10;;-;-;;;;
08.01.2017;15:00:00;6;;-;-;;;;
08.01.2017;16:00:00;9;;-;-;;;;
08.01.2017;17:00:00;5;;-;-;;;;
08.01.2017;18:00:00;10;;-;-;;;;
08.01.2017;19:00:00;4;;-;-;;;;
08.01.2017;20:00:00;3;;-;-;;;;
08.01.2017;21:00:00;5;;-;-;;;;
08.01.2017;22:00:00;2;;-;-;;;;
08.01.2017;23:00:00;5;;-;-;;;;
09.01.2017;00:00:00;0;;-;-;;;;
09.01.2017;01:00:00;1;;-;-;;;;
09.01.2017;02:00:00;0;;-;-;;;;
09.01.2017;03:00:00;0;;-;-;;;;
09.01.2017;04:00:00;1;;-;-;;;;
09.01.2017;05:00:00;1;;-;-;;;;
09.01.2017;06:00:00;2;;-;-;;;;
09.01.2017;07:00:00;6;;-;-;;;;
09.01.2017;08:00:00;10;;-;-;;;;
09.01.2017;09:00:00;16;;-;-;;;;
09.01.2017;10:00:00;11;;-;-;;;;
09.01.2017;11:00:00;9;;-;-;;;;
09.01.2017;12:00:00;19;;-;-;;;;
09.01.2017;13:00:00;13;;-;-;;;;
09.01.2017;14:00:00;23;;-;-;;;;
09.01.2017;15:00:00;25;;-;-;;;;
09.01.2017;16:00:00;28;;-;-;;;;
09.01.2017;17:00:00;24;;-;-;;;;
09.01.2017;18:00:00;26;;-;-;;;;
09.01.2017;19:00:00;16;;-;-;;;;
09.01.2017;20:00:00;14;;-;-;;;;
09.01.2017;21:00:00;11;;-;-;;;;
09.01.2017;22:00:00;8;;-;-;;;;
09.01.2017;23:00:00;2;;-;-;;;;
10.01.2017;00:00:00;2;;-;-;;;;
10.01.2017;01:00:00;1;;-;-;;;;
10.01.2017;02:00:00;1;;-;-;;;;
10.01.2017;03:00:00;0;;-;-;;;;
10.01.2017;04:00:00;0;;-;-;;;;
10.01.2017;05:00:00;1;;-;-;;;;
10.01.2017;06:00:00;2;;-;-;;;;
10.01.2017;07:00:00;3;;-;-;;;;
10.01.2017;08:00:00;5;;-;-;;;;
10.01.2017;09:00:00;13;;-;-;;;;
10.01.2017;10:00:00;11;;-;-;;;;
10.01.2017;11:00:00;10;;-;-;;;;
10.01.2017;12:00:00;18;;-;-;;;;
10.01.2017;13:00:00;15;;-;-;;;;
10.01.2017;14:00:00;20;;-;-;;;;
10.01.2017;15:00:00;22;;-;-;;;;
10.01.2017;16:00:00;20;;-;-;;;;
10.01.2017;17:00:00;24;;-;-;;;;
10.01.2017;18:00:00;19;;-;-;;;;
10.01.2017;19:00:00;27;;-;-;;;;
10.01.2017;20:00:00;16;;-;-;;;;
10.01.2017;21:00:00;6;;-;-;;;;
10.01.2017;22:00:00;10;;-;-;;;;
10.01.2017;23:00:00;3;;-;-;;;;
11.01.2017;00:00:00;6;;-;-;;;;
11.01.2017;01:00:00;2;;-;-;;;;
11.01.2017;02:00:00;0;;-;-;;;;
11.01.2017;03:00:00;0;;-;-;;;;
11.01.2017;04:00:00;0;;-;-;;;;
11.01.2017;05:00:00;1;;-;-;;;;
11.01.2017;06:00:00;2;;-;-;;;;
11.01.2017;07:00:00;6;;-;-;;;;
11.01.2017;08:00:00;11;;-;-;;;;
11.01.2017;09:00:00;11;;-;-;;;;
11.01.2017;10:00:00;15;;-;-;;;;
11.01.2017;11:00:00;10;;-;-;;;;
11.01.2017;12:00:00;17;;-;-;;;;
11.01.2017;13:00:00;15;;-;-;;;;
11.01.2017;14:00:00;12;;-;-;;;;
11.01.2017;15:00:00;21;;-;-;;;;
11.01.2017;16:00:00;16;;-;-;;;;
11.01.2017;17:00:00;21;;-;-;;;;
11.01.2017;18:00:00;17;;-;-;;;;
11.01.2017;19:00:00;17;;-;-;;;;
11.01.2017;20:00:00;5;;-;-;;;;
11.01.2017;21:00:00;8;;-;-;;;;
11.01.2017;22:00:00;1;;-;-;;;;
11.01.2017;23:00:00;8;;-;-;;;;
12.01.2017;00:00:00;5;;-;-;;;;
12.01.2017;01:00:00;1;;-;-;;;;
12.01.2017;02:00:00;2;;-;-;;;;
12.01.2017;03:00:00;0;;-;-;;;;
12.01.2017;04:00:00;0;;-;-;;;;
12.01.2017;05:00:00;2;;-;-;;;;
12.01.2017;06:00:00;2;;-;-;;;;
12.01.2017;07:00:00;8;;-;-;;;;
12.01.2017;08:00:00;11;;-;-;;;;
12.01.2017;09:00:00;17;;-;-;;;;
12.01.2017;10:00:00;6;;-;-;;;;
12.01.2017;11:00:00;14;;-;-;;;;
12.01.2017;12:00:00;15;;-;-;;;;
12.01.2017;13:00:00;17;;-;-;;;;
12.01.2017;14:00:00;26;;-;-;;;;
12.01.2017;15:00:00;36;;-;-;;;;
12.01.2017;16:00:00;14;;-;-;;;;
12.01.2017;17:00:00;19;;-;-;;;;
12.01.2017;18:00:00;27;;-;-;;;;
12.01.2017;19:00:00;16;;-;-;;;;
12.01.2017;20:00:00;3;;-;-;;;;
12.01.2017;21:00:00;8;;-;-;;;;
12.01.2017;22:00:00;8;;-;-;;;;
12.01.2017;23:00:00;5;;-;-;;;;
13.01.2017;00:00:00;3;;-;-;;;;
13.01.2017;01:00:00;2;;-;-;;;;
13.01.2017;02:00:00;3;;-;-;;;;
13.01.2017;03:00:00;3;;-;-;;;;
13.01.2017;04:00:00;0;;-;-;;;;
13.01.2017;05:00:00;1;;-;-;;;;
13.01.2017;06:00:00;3;;-;-;;;;
13.01.2017;07:00:00;5;;-;-;;;;
13.01.2017;08:00:00;6;;-;-;;;;
13.01.2017;09:00:00;14;;-;-;;;;
13.01.2017;10:00:00;8;;-;-;;;;
13.01.2017;11:00:00;12;;-;-;;;;
13.01.2017;12:00:00;12;;-;-;;;;
13.01.2017;13:00:00;21;;-;-;;;;
13.01.2017;14:00:00;16;;-;-;;;;
13.01.2017;15:00:00;17;;-;-;;;;
13.01.2017;16:00:00;23;;-;-;;;;
13.01.2017;17:00:00;21;;-;-;;;;
13.01.2017;18:00:00;13;;-;-;;;;
13.01.2017;19:00:00;10;;-;-;;;;
13.01.2017;20:00:00;3;;-;-;;;;
13.01.2017;21:00:00;4;;-;-;;;;
13.01.2017;22:00:00;6;;-;-;;;;
13.01.2017;23:00:00;1;;-;-;;;;
14.01.2017;00:00:00;3;;-;-;;;;
14.01.2017;01:00:00;2;;-;-;;;;
14.01.2017;02:00:00;4;;-;-;;;;
14.01.2017;03:00:00;2;;-;-;;;;
14.01.2017;04:00:00;1;;-;-;;;;
14.01.2017;05:00:00;0;;-;-;;;;
14.01.2017;06:00:00;3;;-;-;;;;
14.01.2017;07:00:00;1;;-;-;;;;
14.01.2017;08:00:00;4;;-;-;;;;
14.01.2017;09:00:00;8;;-;-;;;;
14.01.2017;10:00:00;8;;-;-;;;;
14.01.2017;11:00:00;10;;-;-;;;;
14.01.2017;12:00:00;16;;-;-;;;;
14.01.2017;13:00:00;15;;-;-;;;;
14.01.2017;14:00:00;17;;-;-;;;;
14.01.2017;15:00:00;13;;-;-;;;;
14.01.2017;16:00:00;8;;-;-;;;;
14.01.2017;17:00:00;19;;-;-;;;;
14.01.2017;18:00:00;20;;-;-;;;;
14.01.2017;19:00:00;5;;-;-;;;;
14.01.2017;20:00:00;3;;-;-;;;;
14.01.2017;21:00:00;8;;-;-;;;;
14.01.2017;22:00:00;6;;-;-;;;;
14.01.2017;23:00:00;1;;-;-;;;;
15.01.2017;00:00:00;3;;-;-;;;;
15.01.2017;01:00:00;3;;-;-;;;;
15.01.2017;02:00:00;3;;-;-;;;;
15.01.2017;03:00:00;0;;-;-;;;;
15.01.2017;04:00:00;1;;-;-;;;;
15.01.2017;05:00:00;0;;-;-;;;;
15.01.2017;06:00:00;1;;-;-;;;;
15.01.2017;07:00:00;1;;-;-;;;;
15.01.2017;08:00:00;1;;-;-;;;;
15.01.2017;09:00:00;0;;-;-;;;;
15.01.2017;10:00:00;1;;-;-;;;;
15.01.2017;11:00:00;3;;-;-;;;;
15.01.2017;12:00:00;6;;-;-;;;;
15.01.2017;13:00:00;7;;-;-;;;;
15.01.2017;14:00:00;3;;-;-;;;;
15.01.2017;15:00:00;6;;-;-;;;;
15.01.2017;16:00:00;15;;-;-;;;;
15.01.2017;17:00:00;15;;-;-;;;;
15.01.2017;18:00:00;10;;-;-;;;;
15.01.2017;19:00:00;9;;-;-;;;;
15.01.2017;20:00:00;3;;-;-;;;;
15.01.2017;21:00:00;4;;-;-;;;;
15.01.2017;22:00:00;8;;-;-;;;;
15.01.2017;23:00:00;3;;-;-;;;;
16.01.2017;00:00:00;0;;-;-;;;;
16.01.2017;01:00:00;0;;-;-;;;;
16.01.2017;02:00:00;1;;-;-;;;;
16.01.2017;03:00:00;1;;-;-;;;;
16.01.2017;04:00:00;0;;-;-;;;;
16.01.2017;05:00:00;1;;-;-;;;;
16.01.2017;06:00:00;2;;-;-;;;;
16.01.2017;07:00:00;6;;-;-;;;;
16.01.2017;08:00:00;13;;-;-;;;;
16.01.2017;09:00:00;15;;-;-;;;;
16.01.2017;10:00:00;13;;-;-;;;;
16.01.2017;11:00:00;19;;-;-;;;;
16.01.2017;12:00:00;14;;-;-;;;;
16.01.2017;13:00:00;19;;-;-;;;;
16.01.2017;14:00:00;17;;-;-;;;;
16.01.2017;15:00:00;20;;-;-;;;;
16.01.2017;16:00:00;23;;-;-;;;;
16.01.2017;17:00:00;21;;-;-;;;;
16.01.2017;18:00:00;29;;-;-;;;;
16.01.2017;19:00:00;27;;-;-;;;;
16.01.2017;20:00:00;8;;-;-;;;;
16.01.2017;21:00:00;7;;-;-;;;;
16.01.2017;22:00:00;9;;-;-;;;;
16.01.2017;23:00:00;3;;-;-;;;;
17.01.2017;00:00:00;2;;-;-;;;;
17.01.2017;01:00:00;0;;-;-;;;;
17.01.2017;02:00:00;2;;-;-;;;;
17.01.2017;03:00:00;0;;-;-;;;;
17.01.2017;04:00:00;0;;-;-;;;;
17.01.2017;05:00:00;1;;-;-;;;;
17.01.2017;06:00:00;2;;-;-;;;;
17.01.2017;07:00:00;7;;-;-;;;;
17.01.2017;08:00:00;10;;-;-;;;;
17.01.2017;09:00:00;18;;-;-;;;;
17.01.2017;10:00:00;10;;-;-;;;;
17.01.2017;11:00:00;16;;-;-;;;;
17.01.2017;12:00:00;9;;-;-;;;;
17.01.2017;13:00:00;21;;-;-;;;;
17.01.2017;14:00:00;22;;-;-;;;;
17.01.2017;15:00:00;22;;-;-;;;;
17.01.2017;16:00:00;17;;-;-;;;;
17.01.2017;17:00:00;22;;-;-;;;;
17.01.2017;18:00:00;18;;-;-;;;;
17.01.2017;19:00:00;28;;-;-;;;;
17.01.2017;20:00:00;16;;-;-;;;;
17.01.2017;21:00:00;12;;-;-;;;;
17.01.2017;22:00:00;11;;-;-;;;;
17.01.2017;23:00:00;9;;-;-;;;;
18.01.2017;00:00:00;0;;-;-;;;;
18.01.2017;01:00:00;0;;-;-;;;;
18.01.2017;02:00:00;1;;-;-;;;;
18.01.2017;03:00:00;0;;-;-;;;;
18.01.2017;04:00:00;0;;-;-;;;;
18.01.2017;05:00:00;2;;-;-;;;;
18.01.2017;06:00:00;5;;-;-;;;;
18.01.2017;07:00:00;2;;-;-;;;;
18.01.2017;08:00:00;12;;-;-;;;;
18.01.2017;09:00:00;12;;-;-;;;;
18.01.2017;10:00:00;6;;-;-;;;;
18.01.2017;11:00:00;12;;-;-;;;;
18.01.2017;12:00:00;10;;-;-;;;;
18.01.2017;13:00:00;16;;-;-;;;;
18.01.2017;14:00:00;18;;-;-;;;;
18.01.2017;15:00:00;15;;-;-;;;;
18.01.2017;16:00:00;18;;-;-;;;;
18.01.2017;17:00:00;23;;-;-;;;;
18.01.2017;18:00:00;34;;-;-;;;;
18.01.2017;19:00:00;17;;-;-;;;;
18.01.2017;20:00:00;12;;-;-;;;;
18.01.2017;21:00:00;18;;-;-;;;;
18.01.2017;22:00:00;7;;-;-;;;;
18.01.2017;23:00:00;5;;-;-;;;;
19.01.2017;00:00:00;3;;-;-;;;;
19.01.2017;01:00:00;2;;-;-;;;;
19.01.2017;02:00:00;0;;-;-;;;;
19.01.2017;03:00:00;0;;-;-;;;;
19.01.2017;04:00:00;1;;-;-;;;;
19.01.2017;05:00:00;0;;-;-;;;;
19.01.2017;06:00:00;4;;-;-;;;;
19.01.2017;07:00:00;5;;-;-;;;;
19.01.2017;08:00:00;13;;-;-;;;;
19.01.2017;09:00:00;9;;-;-;;;;
19.01.2017;10:00:00;12;;-;-;;;;
19.01.2017;11:00:00;11;;-;-;;;;
19.01.2017;12:00:00;17;;-;-;;;;
19.01.2017;13:00:00;15;;-;-;;;;
19.01.2017;14:00:00;23;;-;-;;;;
19.01.2017;15:00:00;15;;-;-;;;;
19.01.2017;16:00:00;14;;-;-;;;;
19.01.2017;17:00:00;25;;-;-;;;;
19.01.2017;18:00:00;31;;-;-;;;;
19.01.2017;19:00:00;16;;-;-;;;;
19.01.2017;20:00:00;12;;-;-;;;;
19.01.2017;21:00:00;11;;-;-;;;;
19.01.2017;22:00:00;9;;-;-;;;;
19.01.2017;23:00:00;3;;-;-;;;;
20.01.2017;00:00:00;4;;-;-;;;;
20.01.2017;01:00:00;2;;-;-;;;;
20.01.2017;02:00:00;2;;-;-;;;;
20.01.2017;03:00:00;0;;-;-;;;;
20.01.2017;04:00:00;0;;-;-;;;;
20.01.2017;05:00:00;2;;-;-;;;;
20.01.2017;06:00:00;1;;-;-;;;;
20.01.2017;07:00:00;3;;-;-;;;;
20.01.2017;08:00:00;11;;-;-;;;;
20.01.2017;09:00:00;15;;-;-;;;;
20.01.2017;10:00:00;12;;-;-;;;;
20.01.2017;11:00:00;22;;-;-;;;;
20.01.2017;12:00:00;23;;-;-;;;;
20.01.2017;13:00:00;19;;-;-;;;;
20.01.2017;14:00:00;28;;-;-;;;;
20.01.2017;15:00:00;23;;-;-;;;;
20.01.2017;16:00:00;22;;-;-;;;;
20.01.2017;17:00:00;18;;-;-;;;;
20.01.2017;18:00:00;27;;-;-;;;;
20.01.2017;19:00:00;21;;-;-;;;;
20.01.2017;20:00:00;8;;-;-;;;;
20.01.2017;21:00:00;8;;-;-;;;;
20.01.2017;22:00:00;5;;-;-;;;;
20.01.2017;23:00:00;9;;-;-;;;;
21.01.2017;00:00:00;4;;-;-;;;;
21.01.2017;01:00:00;0;;-;-;;;;
21.01.2017;02:00:00;1;;-;-;;;;
21.01.2017;03:00:00;2;;-;-;;;;
21.01.2017;04:00:00;1;;-;-;;;;
21.01.2017;05:00:00;0;;-;-;;;;
21.01.2017;06:00:00;0;;-;-;;;;
21.01.2017;07:00:00;0;;-;-;;;;
21.01.2017;08:00:00;8;;-;-;;;;
21.01.2017;09:00:00;4;;-;-;;;;
21.01.2017;10:00:00;5;;-;-;;;;
21.01.2017;11:00:00;9;;-;-;;;;
21.01.2017;12:00:00;22;;-;-;;;;
21.01.2017;13:00:00;20;;-;-;;;;
21.01.2017;14:00:00;23;;-;-;;;;
21.01.2017;15:00:00;18;;-;-;;;;
21.01.2017;16:00:00;26;;-;-;;;;
21.01.2017;17:00:00;19;;-;-;;;;
21.01.2017;18:00:00;13;;-;-;;;;
21.01.2017;19:00:00;15;;-;-;;;;
21.01.2017;20:00:00;5;;-;-;;;;
21.01.2017;21:00:00;3;;-;-;;;;
21.01.2017;22:00:00;5;;-;-;;;;
21.01.2017;23:00:00;6;;-;-;;;;
22.01.2017;00:00:00;3;;-;-;;;;
22.01.2017;01:00:00;10;;-;-;;;;
22.01.2017;02:00:00;5;;-;-;;;;
22.01.2017;03:00:00;1;;-;-;;;;
22.01.2017;04:00:00;2;;-;-;;;;
22.01.2017;05:00:00;0;;-;-;;;;
22.01.2017;06:00:00;1;;-;-;;;;
22.01.2017;07:00:00;0;;-;-;;;;
22.01.2017;08:00:00;0;;-;-;;;;
22.01.2017;09:00:00;1;;-;-;;;;
22.01.2017;10:00:00;1;;-;-;;;;
22.01.2017;11:00:00;6;;-;-;;;;
22.01.2017;12:00:00;8;;-;-;;;;
22.01.2017;13:00:00;6;;-;-;;;;
22.01.2017;14:00:00;3;;-;-;;;;
22.01.2017;15:00:00;10;;-;-;;;;
22.01.2017;16:00:00;10;;-;-;;;;
22.01.2017;17:00:00;7;;-;-;;;;
22.01.2017;18:00:00;4;;-;-;;;;
22.01.2017;19:00:00;7;;-;-;;;;
22.01.2017;20:00:00;11;;-;-;;;;
22.01.2017;21:00:00;6;;-;-;;;;
22.01.2017;22:00:00;4;;-;-;;;;
22.01.2017;23:00:00;2;;-;-;;;;
23.01.2017;00:00:00;1;;-;-;;;;
23.01.2017;01:00:00;0;;-;-;;;;
23.01.2017;02:00:00;0;;-;-;;;;
23.01.2017;03:00:00;0;;-;-;;;;
23.01.2017;04:00:00;0;;-;-;;;;
23.01.2017;05:00:00;0;;-;-;;;;
23.01.2017;06:00:00;2;;-;-;;;;
23.01.2017;07:00:00;4;;-;-;;;;
23.01.2017;08:00:00;14;;-;-;;;;
23.01.2017;09:00:00;11;;-;-;;;;
23.01.2017;10:00:00;8;;-;-;;;;
23.01.2017;11:00:00;14;;-;-;;;;
23.01.2017;12:00:00;8;;-;-;;;;
23.01.2017;13:00:00;16;;-;-;;;;
23.01.2017;14:00:00;22;;-;-;;;;
23.01.2017;15:00:00;17;;-;-;;;;
23.01.2017;16:00:00;18;;-;-;;;;
23.01.2017;17:00:00;18;;-;-;;;;
23.01.2017;18:00:00;21;;-;-;;;;
23.01.2017;19:00:00;13;;-;-;;;;
23.01.2017;20:00:00;13;;-;-;;;;
23.01.2017;21:00:00;5;;-;-;;;;
23.01.2017;22:00:00;6;;-;-;;;;
23.01.2017;23:00:00;2;;-;-;;;;
24.01.2017;00:00:00;2;;-;-;;;;
24.01.2017;01:00:00;2;;-;-;;;;
24.01.2017;02:00:00;0;;-;-;;;;
24.01.2017;03:00:00;0;;-;-;;;;
24.01.2017;04:00:00;0;;-;-;;;;
24.01.2017;05:00:00;0;;-;-;;;;
24.01.2017;06:00:00;2;;-;-;;;;
24.01.2017;07:00:00;5;;-;-;;;;
24.01.2017;08:00:00;4;;-;-;;;;
24.01.2017;09:00:00;12;;-;-;;;;
24.01.2017;10:00:00;6;;-;-;;;;
24.01.2017;11:00:00;10;;-;-;;;;
24.01.2017;12:00:00;19;;-;-;;;;
24.01.2017;13:00:00;18;;-;-;;;;
24.01.2017;14:00:00;17;;-;-;;;;
24.01.2017;15:00:00;8;;-;-;;;;
24.01.2017;16:00:00;16;;-;-;;;;
24.01.2017;17:00:00;19;;-;-;;;;
24.01.2017;18:00:00;22;;-;-;;;;
24.01.2017;19:00:00;17;;-;-;;;;
24.01.2017;20:00:00;14;;-;-;;;;
24.01.2017;21:00:00;3;;-;-;;;;
24.01.2017;22:00:00;5;;-;-;;;;
24.01.2017;23:00:00;2;;-;-;;;;
25.01.2017;00:00:00;3;;-;-;;;;
25.01.2017;01:00:00;1;;-;-;;;;
25.01.2017;02:00:00;4;;-;-;;;;
25.01.2017;03:00:00;0;;-;-;;;;
25.01.2017;04:00:00;0;;-;-;;;;
25.01.2017;05:00:00;0;;-;-;;;;
25.01.2017;06:00:00;4;;-;-;;;;
25.01.2017;07:00:00;2;;-;-;;;;
25.01.2017;08:00:00;15;;-;-;;;;
25.01.2017;09:00:00;9;;-;-;;;;
25.01.2017;10:00:00;13;;-;-;;;;
25.01.2017;11:00:00;15;;-;-;;;;
25.01.2017;12:00:00;12;;-;-;;;;
25.01.2017;13:00:00;17;;-;-;;;;
25.01.2017;14:00:00;19;;-;-;;;;
25.01.2017;15:00:00;18;;-;-;;;;
25.01.2017;16:00:00;20;;-;-;;;;
25.01.2017;17:00:00;22;;-;-;;;;
25.01.2017;18:00:00;17;;-;-;;;;
25.01.2017;19:00:00;17;;-;-;;;;
25.01.2017;20:00:00;9;;-;-;;;;
25.01.2017;21:00:00;6;;-;-;;;;
25.01.2017;22:00:00;4;;-;-;;;;
25.01.2017;23:00:00;7;;-;-;;;;
26.01.2017;00:00:00;5;;-;-;;;;
26.01.2017;01:00:00;2;;-;-;;;;
26.01.2017;02:00:00;0;;-;-;;;;
26.01.2017;03:00:00;1;;-;-;;;;
26.01.2017;04:00:00;0;;-;-;;;;
26.01.2017;05:00:00;0;;-;-;;;;
26.01.2017;06:00:00;4;;-;-;;;;
26.01.2017;07:00:00;9;;-;-;;;;
26.01.2017;08:00:00;13;;-;-;;;;
26.01.2017;09:00:00;21;;-;-;;;;
26.01.2017;10:00:00;8;;-;-;;;;
26.01.2017;11:00:00;9;;-;-;;;;
26.01.2017;12:00:00;19;;-;-;;;;
26.01.2017;13:00:00;21;;-;-;;;;
26.01.2017;14:00:00;22;;-;-;;;;
26.01.2017;15:00:00;14;;-;-;;;;
26.01.2017;16:00:00;18;;-;-;;;;
26.01.2017;17:00:00;17;;-;-;;;;
26.01.2017;18:00:00;21;;-;-;;;;
26.01.2017;19:00:00;22;;-;-;;;;
26.01.2017;20:00:00;10;;-;-;;;;
26.01.2017;21:00:00;4;;-;-;;;;
26.01.2017;22:00:00;10;;-;-;;;;
26.01.2017;23:00:00;5;;-;-;;;;
27.01.2017;00:00:00;1;;-;-;;;;
27.01.2017;01:00:00;1;;-;-;;;;
27.01.2017;02:00:00;2;;-;-;;;;
27.01.2017;03:00:00;0;;-;-;;;;
27.01.2017;04:00:00;0;;-;-;;;;
27.01.2017;05:00:00;0;;-;-;;;;
27.01.2017;06:00:00;2;;-;-;;;;
27.01.2017;07:00:00;6;;-;-;;;;
27.01.2017;08:00:00;18;;-;-;;;;
27.01.2017;09:00:00;13;;-;-;;;;
27.01.2017;10:00:00;5;;-;-;;;;
27.01.2017;11:00:00;21;;-;-;;;;
27.01.2017;12:00:00;19;;-;-;;;;
27.01.2017;13:00:00;24;;-;-;;;;
27.01.2017;14:00:00;31;;-;-;;;;
27.01.2017;15:00:00;34;;-;-;;;;
27.01.2017;16:00:00;18;;-;-;;;;
27.01.2017;17:00:00;19;;-;-;;;;
27.01.2017;18:00:00;29;;-;-;;;;
27.01.2017;19:00:00;19;;-;-;;;;
27.01.2017;20:00:00;17;;-;-;;;;
27.01.2017;21:00:00;10;;-;-;;;;
27.01.2017;22:00:00;5;;-;-;;;;
27.01.2017;23:00:00;4;;-;-;;;;
28.01.2017;00:00:00;4;;-;-;;;;
28.01.2017;01:00:00;10;;-;-;;;;
28.01.2017;02:00:00;4;;-;-;;;;
28.01.2017;03:00:00;0;;-;-;;;;
28.01.2017;04:00:00;4;;-;-;;;;
28.01.2017;05:00:00;0;;-;-;;;;
28.01.2017;06:00:00;1;;-;-;;;;
28.01.2017;07:00:00;1;;-;-;;;;
28.01.2017;08:00:00;4;;-;-;;;;
28.01.2017;09:00:00;9;;-;-;;;;
28.01.2017;10:00:00;8;;-;-;;;;
28.01.2017;11:00:00;15;;-;-;;;;
28.01.2017;12:00:00;14;;-;-;;;;
28.01.2017;13:00:00;23;;-;-;;;;
28.01.2017;14:00:00;22;;-;-;;;;
28.01.2017;15:00:00;26;;-;-;;;;
28.01.2017;16:00:00;17;;-;-;;;;
28.01.2017;17:00:00;19;;-;-;;;;
28.01.2017;18:00:00;21;;-;-;;;;
28.01.2017;19:00:00;18;;-;-;;;;
28.01.2017;20:00:00;9;;-;-;;;;
28.01.2017;21:00:00;6;;-;-;;;;
28.01.2017;22:00:00;8;;-;-;;;;
28.01.2017;23:00:00;3;;-;-;;;;
29.01.2017;00:00:00;4;;-;-;;;;
29.01.2017;01:00:00;0;;-;-;;;;
29.01.2017;02:00:00;4;;-;-;;;;
29.01.2017;03:00:00;3;;-;-;;;;
29.01.2017;04:00:00;2;;-;-;;;;
29.01.2017;05:00:00;0;;-;-;;;;
29.01.2017;06:00:00;2;;-;-;;;;
29.01.2017;07:00:00;0;;-;-;;;;
29.01.2017;08:00:00;1;;-;-;;;;
29.01.2017;09:00:00;1;;-;-;;;;
29.01.2017;10:00:00;4;;-;-;;;;
29.01.2017;11:00:00;1;;-;-;;;;
29.01.2017;12:00:00;5;;-;-;;;;
29.01.2017;13:00:00;6;;-;-;;;;
29.01.2017;14:00:00;14;;-;-;;;;
29.01.2017;15:00:00;14;;-;-;;;;
29.01.2017;16:00:00;16;;-;-;;;;
29.01.2017;17:00:00;16;;-;-;;;;
29.01.2017;18:00:00;7;;-;-;;;;
29.01.2017;19:00:00;16;;-;-;;;;
29.01.2017;20:00:00;6;;-;-;;;;
29.01.2017;21:00:00;9;;-;-;;;;
29.01.2017;22:00:00;3;;-;-;;;;
29.01.2017;23:00:00;4;;-;-;;;;
30.01.2017;00:00:00;1;;-;-;;;;
30.01.2017;01:00:00;2;;-;-;;;;
30.01.2017;02:00:00;0;;-;-;;;;
30.01.2017;03:00:00;0;;-;-;;;;
30.01.2017;04:00:00;1;;-;-;;;;
30.01.2017;05:00:00;1;;-;-;;;;
30.01.2017;06:00:00;3;;-;-;;;;
30.01.2017;07:00:00;3;;-;-;;;;
30.01.2017;08:00:00;5;;-;-;;;;
30.01.2017;09:00:00;16;;-;-;;;;
30.01.2017;10:00:00;10;;-;-;;;;
30.01.2017;11:00:00;9;;-;-;;;;
30.01.2017;12:00:00;8;;-;-;;;;
30.01.2017;13:00:00;18;;-;-;;;;
30.01.2017;14:00:00;14;;-;-;;;;
30.01.2017;15:00:00;22;;-;-;;;;
30.01.2017;16:00:00;10;;-;-;;;;
30.01.2017;17:00:00;17;;-;-;;;;
30.01.2017;18:00:00;28;;-;-;;;;
30.01.2017;19:00:00;15;;-;-;;;;
30.01.2017;20:00:00;11;;-;-;;;;
30.01.2017;21:00:00;7;;-;-;;;;
30.01.2017;22:00:00;2;;-;-;;;;
30.01.2017;23:00:00;2;;-;-;;;;
31.01.2017;00:00:00;0;;-;-;;;;
31.01.2017;01:00:00;1;;-;-;;;;
31.01.2017;02:00:00;1;;-;-;;;;
31.01.2017;03:00:00;0;;-;-;;;;
31.01.2017;04:00:00;0;;-;-;;;;
31.01.2017;05:00:00;2;;-;-;;;;
31.01.2017;06:00:00;6;;-;-;;;;
31.01.2017;07:00:00;4;;-;-;;;;
31.01.2017;08:00:00;12;;-;-;;;;
31.01.2017;09:00:00;18;;-;-;;;;
31.01.2017;10:00:00;7;;-;-;;;;
31.01.2017;11:00:00;18;;-;-;;;;
31.01.2017;12:00:00;18;;-;-;;;;
31.01.2017;13:00:00;28;;-;-;;;;
31.01.2017;14:00:00;20;;-;-;;;;
31.01.2017;15:00:00;17;;-;-;;;;